Location: Unspecified
(0.0000°N, 0.0000°E)
Time: 22:26:12
(UTC+00:00)

M3MSAT - Visible Passes

Search period start: 06 June 2023 00:00
Search period end: 16 June 2023 00:00
Orbit: 473 x 486 km, 97.2° (Epoch: 06 June)

Date Brightness Start Highest point End Pass type
(mag) Time Alt. Az. Time Alt. Az. Time Alt. Az.
06 Jun ? 20:07:28 22° NW 20:07:28 22° NW 20:09:01 10° NNW visible
07 Jun ? 19:41:22 34° N 19:41:22 34° N 19:43:30 10° N visible
08 Jun ? 19:15:16 21° NE 19:15:16 21° NE 19:17:08 10° NNE visible
09 Jun ? 20:23:24 14° WNW 20:23:24 14° WNW 20:24:17 10° NW visible
10 Jun ? 19:57:16 31° NW 19:57:16 31° NW 19:59:18 10° NNW visible
11 Jun ? 19:31:07 33° NNE 19:31:07 33° NNE 19:33:26 10° N visible
12 Jun ? 19:04:58 16° ENE 19:04:58 16° ENE 19:06:35 10° NE visible
13 Jun ? 20:13:03 21° WNW 20:13:03 21° WNW 20:14:38 10° NW visible
14 Jun ? 19:46:51 41° NNW 19:46:51 41° NNW 19:49:14 10° N visible
15 Jun ? 19:20:40 27° NE 19:20:40 27° NE 19:23:00 10° NNE visible
